Flag for Brazil Weather past 2 weeks in Boa Vista, Roraima, Brazil

Now
82 °F

Clear.


Feels Like: 87 °F
Forecast: 75 / 85 °F
Wind: No wind

Location: Boa Vista Aeropor-To

Current Time: Jul 1, 2015 at 9:05:03 PM

Latest Report: Jul 1, 2015 at 8:00 PM


Visibility: 10 mi

Pressure: 29.89 "Hg

Humidity: 70%

Dew point: 72 °F

Location of Boa VistaLocation

Historic Weather in Boa Vista — Graph

°F

Boa Vista temperature yesterday

Maximum temperature yesterday: 84 °F (at 3:00 PM)
Minimum temperature yesterday: 73 °F (at 9:00 AM)
Average temperature yesterday: 78 °F

Past Weeks' High & Low Weather Summary

 TemperatureHumidityPressure
High90 °F (Jun 23, 3:00 PM)100% (Jun 25, 12:00 PM)30.07 "Hg (Jun 25, 12:00 PM)
Low37 °F (Jun 25, 12:00 PM)46% (Jun 23, 3:00 PM)29.83 "Hg (Jun 17, 4:00 PM)
Average79 °F77%29.95 "Hg
* Reported Jun 16 8:00 PM — Jul 1 8:00 PM, Boa Vista, Weather by CustomWeather, © 2015

Note: Actual official high and low records may vary slightly from our data, if they occured in-between our weather recording intervals... More about our weather records

Advertising

Boa Vista weather history for previous 24 hours

 ConditionsComfort  
Time TempWeatherWind HumidityBarometerVisibility
8:00 PM
Wed, Jul 1
82 °FClear.No wind70%29.89 "Hg10 mi
7:00 PM84 °FClear.2 mph66%29.86 "Hg10 mi
6:00 PM86 °FPassing clouds.2 mph59%29.86 "HgN/A
5:00 PM86 °FScattered clouds.3 mph62%29.83 "HgN/A
4:00 PM86 °FScattered clouds.No wind59%29.86 "HgN/A
3:00 PM82 °FScattered clouds.5 mph70%29.89 "HgN/A
2:00 PM84 °FScattered showers. Scattered clouds.5 mph70%29.92 "HgN/A
1:00 PM88 °FScattered clouds.6 mph55%29.95 "HgN/A
12:00 PM86 °FPartly sunny.6 mph62%29.98 "HgN/A
11:00 AM82 °FPartly sunny.1 mph70%29.98 "HgN/A
10:00 AM81 °FScattered clouds.3 mph74%30.01 "HgN/A
9:00 AM79 °FScattered clouds.2 mph79%30.01 "HgN/A
8:00 AM77 °FScattered clouds.3 mph83%30.01 "HgN/A
7:00 AM75 °FScattered clouds.3 mph89%29.98 "HgN/A
6:00 AM73 °FScattered clouds.2 mph94%29.95 "HgN/A
5:00 AM73 °FPartly cloudy.6 mph94%29.95 "HgN/A
4:00 AM75 °FPassing clouds.5 mph89%29.95 "HgN/A
3:00 AM75 °FPassing clouds.6 mph94%29.92 "HgN/A
2:00 AM75 °FPassing clouds.5 mph94%29.92 "HgN/A
1:00 AM75 °FPassing clouds.3 mph94%29.95 "HgN/A
12:00 AM77 °FPassing clouds.No wind89%29.98 "HgN/A
11:00 PM
Tue, Jun 30
77 °FPassing clouds.No wind89%29.98 "HgN/A
10:00 PM77 °FPassing clouds.2 mph89%29.98 "HgN/A
9:00 PM77 °FPassing clouds.No wind89%29.95 "HgN/A
Weather by CustomWeather, © 2015

See weather overviewHow to use our weather pages